Regional Weather Roundup
Issued by NWS

Home | Current Version | Previous Version | Text Only | Print | Product List | Glossary On
Versions: 1 2 3 4 5 6 7 8 9 10 11 12 13 14 15 16 17 18 19 20 21 22 23 24 25 26 27 28 29 30 31 32 33 34 35 36 37 38 39 40 41 42 43 44 45 46 47 48 49 50
000
ASUS43 KDTX 012001
RWRMI
MICHIGAN HOURLY REGIONAL WEATHER ROUNDUP
NATIONAL WEATHER SERVICE DETROIT/PONTIAC MI
400 PM EDT SUN MAY 01 2016

NOTE: "FAIR" INDICATES FEW OR NO CLOUDS BELOW 12,000 FEET WITH NO
SIGNIFICANT WEATHER AND/OR OBSTRUCTION TO VISIBILITY.

MIZ047>049-052>055-059>063-066>070-074>076-081>083-012100-
SOUTHEAST LOWER MICHIGAN

CITY           SKY/WX    TMP DP  RH WIND       PRES   REMARKS
ADRIAN         CLOUDY    55  50  83 VRB3      29.98S
ALMA           CLOUDY    49  45  86 NE15G23   30.04R
ANN ARBOR      CLOUDY    53  48  83 N7        29.98S
BAD AXE        CLOUDY    47  41  82 NE13G20   30.05S
CARO           CLOUDY    47  43  87 NE10G16   30.03S
DETROIT CITY   CLOUDY    55  47  74 N9        29.99S
DETROIT        CLOUDY    55  48  77 N8        29.99S
FLINT          CLOUDY    53  45  74 NE8       30.02S
GROSSE ILE     CLOUDY    54  48  82 N3        29.97S HAZE
HILLSDALE      CLOUDY    54  52  92 CALM      29.98S
HOWELL         CLOUDY    50  48  93 NE6       30.00S

CITY           SKY/WX    TMP DP  RH WIND       PRES   REMARKS
JACKSON        CLOUDY    51  47  86 NE6       29.99S
LAMBERTVILLE   CLOUDY    56  51  86 NE3       29.97F
LANSING        CLOUDY    49  46  90 NE10      30.02S
LAPEER         CLOUDY    47  44  88 NE8       30.03R
MASON          CLOUDY    49  47  93 NE9       30.00S
MONROE         CLOUDY    54  51  89 N5        29.97F
MT. CLEMENS    CLOUDY    52  51  97 N10       29.98F
PONTIAC        CLOUDY    50  46  86 N10       29.99S
PORT HOPE        N/A     44  38  79 NE15      30.04S
PORT HURON     CLOUDY    48  45  87 N7        30.01S
TRI CITIES     CLOUDY    50  42  74 NE21G29   30.05S
MIDLAND        CLOUDY    50  41  71 NE15G25   30.05F
TROY           CLOUDY    52  48  87 N9        30.01S
SAGINAW HB     CLOUDY    46  43  87 NE13      30.04R
$$
MIZ043>046-050>051-056>058-064>065-071>073-077>080-012100-
SOUTHWEST LOWER MICHIGAN

CITY           SKY/WX    TMP DP  RH WIND       PRES   REMARKS
BATTLE CREEK   CLOUDY    50  46  86 NE8       30.00S
BENTON HARBOR  CLOUDY    54  47  77 E5        29.99R
BIG RAPIDS     CLOUDY    51  42  73 E12       30.03S
COLDWATER      CLOUDY    54  50  87 N8        29.98S
FREMONT        CLOUDY    51  45  78 E8G16     30.02S
HOLLAND        CLOUDY    53  47  79 E8        30.01S
GRAND RAPIDS   CLOUDY    52  46  80 E13       30.02R
IONIA          CLOUDY    49  46  88 NE13      30.01S
KALAMAZOO      CLOUDY    52  46  80 E5        30.00S
LUDINGTON      CLOUDY    51  44  76 E9        30.05R
MARSHALL       CLOUDY    51  47  87 E7        29.99S
MOUNT PLEASANT CLOUDY    52  43  71 NE16      30.03S
MUSKEGON       CLOUDY    54  44  69 E10       30.01S
$$
MIZ016>042-012100-
NORTHERN LOWER MICHIGAN

CITY           SKY/WX    TMP DP  RH WIND       PRES   REMARKS
ALPENA         CLOUDY    53  33  46 E10       30.10F
BEAVER ISLAND  PTSUNNY   53  35  49 NE5       30.13S
BELLAIRE       CLOUDY    54  38  54 E8        30.09S
CADILLAC       CLOUDY    50  40  70 NE17G23   30.04F
CHARLEVOIX     CLOUDY    49  37  61 N15       30.12F
FRANKFORT      CLOUDY    53  43  69 E9        30.08S
GAYLORD        CLOUDY    51  38  60 VRB7      30.09S
HARBOR SPRINGS CLOUDY    56  34  43 NE10G16   30.09F
HOUGHTON LAKE  CLOUDY    50  38  63 E17       30.07S
MANISTEE       CLOUDY    52  41  66 E15       30.07S
OSCODA         CLOUDY    52  35  52 NE14      30.07F
PELLSTON       CLOUDY    56  32  40 E9        30.11F
ROGERS CITY    CLOUDY    49  37  63 N3        30.13S
TRAVERSE CITY  CLOUDY    51  42  71 NE6       30.07F
$$
MIZ007>008-015-012100-
EASTERN UPPER MICHIGAN

CITY           SKY/WX    TMP DP  RH WIND       PRES   REMARKS
KINROSS          N/A     61  28  29 SE7       30.09F
MACKINAC ISLAN CLOUDY    53  32  44 S6        30.11S
NEWBERRY       MOSUNNY   58  33  38 SW5       30.09F
S. S. MARIE    CLOUDY    60  31  33 VRB7      30.08F
MUNISING         N/A     45  36  70 NE10      30.14F
$$
MIZ004>006-011>014-085-012100-
CENTRAL UPPER MICHIGAN

CITY           SKY/WX    TMP DP  RH WIND       PRES   REMARKS
MANISTIQUE     SUNNY     55  33  43 SE9       30.11F
ESCANABA       SUNNY     55  34  44 SE14      30.12S
MENOMINEE      SUNNY     54  34  47 E15       30.12S
SAWYER-GWINN   SUNNY     50  32  50 NE20      30.16S
$$
MIZ001>003-009>011-084-012100-
WESTERN UPPER MICHIGAN

CITY           SKY/WX    TMP DP  RH WIND       PRES   REMARKS
IRON MOUNTAIN  MOSUNNY   61  27  27 VRB6G17   30.08F
HOUGHTON       SUNNY     52  34  50 E10       30.16F
COPPER HARBOR    N/A     44  37  76 CALM      30.19F
IRONWOOD         N/A     48  36  61 N12G17    30.14S
$$

ABBREVIATIONS USED IN REMARKS
   TC - TEMPERATURE IN CELSIUS
  WCI - WIND CHILL INDEX
   HX - HEAT INDEX
  VSB - VISIBILITY





USA.gov is the U.S. government's official web portal to all federal, state and local government web resources and services.